TimeCST,TemperatureF,Dew PointF,Humidity,Sea Level PressureIn,VisibilityMPH,Wind Direction,Wind SpeedMPH,Gust SpeedMPH,PrecipitationIn,Events,Conditions,WindDirDegrees,DateUTC
12:15 AM,32.0,26.6,80,30.19,-9999.0,SSE,5.8,-,N/A,,Clear,150,2012-11-29 06:15:00
12:35 AM,32.0,26.6,80,30.19,-9999.0,SSE,5.8,-,N/A,,Clear,160,2012-11-29 06:35:00
12:55 AM,32.0,26.6,80,30.19,-9999.0,SSE,5.8,-,N/A,,Clear,160,2012-11-29 06:55:00
1:15 AM,32.0,26.6,80,30.19,-9999.0,SE,4.6,-,N/A,,Clear,140,2012-11-29 07:15:00
1:35 AM,32.0,26.6,80,30.18,-9999.0,SSE,6.9,-,N/A,,Clear,150,2012-11-29 07:35:00
1:55 AM,32.0,26.6,80,30.18,-9999.0,SSE,6.9,-,N/A,,Clear,150,2012-11-29 07:55:00
2:15 AM,32.0,26.6,80,30.18,-9999.0,SSE,6.9,-,N/A,,Clear,160,2012-11-29 08:15:00
2:35 AM,32.0,26.6,80,30.17,-9999.0,SSE,6.9,-,N/A,,Clear,150,2012-11-29 08:35:00
2:55 AM,30.2,26.6,86,30.17,-9999.0,SSE,6.9,-,N/A,,Unknown,150,2012-11-29 08:55:00
3:15 AM,30.2,26.6,86,30.17,-9999.0,SSE,5.8,-,N/A,,Unknown,150,2012-11-29 09:15:00
3:35 AM,30.2,26.6,86,30.16,-9999.0,SSE,5.8,-,N/A,,Unknown,150,2012-11-29 09:35:00
3:55 AM,32.0,26.6,80,30.15,-9999.0,SSE,6.9,-,N/A,,Unknown,160,2012-11-29 09:55:00
4:15 AM,32.0,26.6,80,30.15,-9999.0,SSE,8.1,-,N/A,,Clear,160,2012-11-29 10:15:00
4:35 AM,32.0,26.6,80,30.14,-9999.0,SSE,8.1,-,N/A,,Clear,160,2012-11-29 10:35:00
4:55 AM,32.0,26.6,80,30.14,-9999.0,SSE,6.9,-,N/A,,Clear,160,2012-11-29 10:55:00
5:15 AM,32.0,26.6,80,30.13,-9999.0,SSE,8.1,-,N/A,,Clear,160,2012-11-29 11:15:00
5:35 AM,32.0,26.6,80,30.13,-9999.0,SSE,6.9,-,N/A,,Clear,160,2012-11-29 11:35:00
5:55 AM,32.0,26.6,80,30.13,-9999.0,SSE,9.2,-,N/A,,Clear,160,2012-11-29 11:55:00
6:15 AM,32.0,26.6,80,30.12,-9999.0,SSE,9.2,-,N/A,,Clear,160,2012-11-29 12:15:00
6:35 AM,32.0,26.6,80,30.12,-9999.0,SSE,8.1,-,N/A,,Clear,160,2012-11-29 12:35:00
6:55 AM,32.0,26.6,80,30.12,-9999.0,SSE,8.1,-,N/A,,Clear,160,2012-11-29 12:55:00
7:15 AM,30.2,26.6,86,30.11,-9999.0,SSE,8.1,-,N/A,,Unknown,150,2012-11-29 13:15:00
7:35 AM,32.0,26.6,80,30.11,-9999.0,SSE,8.1,-,N/A,,Clear,150,2012-11-29 13:35:00
7:55 AM,32.0,28.4,87,30.11,-9999.0,SSE,8.1,-,N/A,,Unknown,160,2012-11-29 13:55:00
8:15 AM,32.0,28.4,87,30.11,-9999.0,SSE,9.2,-,N/A,,Unknown,160,2012-11-29 14:15:00
8:35 AM,35.6,28.4,75,30.11,-9999.0,SSE,8.1,-,N/A,,Clear,150,2012-11-29 14:35:00
8:55 AM,37.4,30.2,75,30.11,-9999.0,SSE,8.1,-,N/A,,Clear,160,2012-11-29 14:55:00
9:15 AM,39.2,32.0,75,30.11,10.0,South,8.1,-,N/A,,Clear,170,2012-11-29 15:15:00
9:35 AM,41.0,32.0,70,30.11,10.0,South,9.2,-,N/A,,Clear,170,2012-11-29 15:35:00
9:55 AM,42.8,32.0,66,30.11,5.0,South,10.4,-,N/A,,Haze,180,2012-11-29 15:55:00
10:15 AM,46.4,32.0,57,30.10,10.0,South,12.7,-,N/A,,Clear,190,2012-11-29 16:15:00
10:35 AM,48.2,32.0,54,30.09,10.0,South,16.1,-,N/A,,Clear,190,2012-11-29 16:35:00
10:55 AM,48.2,32.0,54,30.08,10.0,South,16.1,19.6,N/A,,Clear,190,2012-11-29 16:55:00
11:15 AM,46.4,32.0,57,30.07,10.0,South,13.8,-,N/A,,Clear,190,2012-11-29 17:15:00
11:35 AM,48.2,32.0,54,30.06,10.0,SSW,11.5,-,N/A,,Clear,200,2012-11-29 17:35:00
11:55 AM,48.2,32.0,54,30.05,10.0,SSW,11.5,-,N/A,,Clear,200,2012-11-29 17:55:00
12:15 PM,50.0,33.8,54,30.04,10.0,SSW,13.8,-,N/A,,Clear,200,2012-11-29 18:15:00
12:35 PM,50.0,33.8,54,30.03,10.0,South,11.5,-,N/A,,Clear,180,2012-11-29 18:35:00
12:55 PM,50.0,33.8,54,30.03,10.0,SSW,12.7,-,N/A,,Clear,210,2012-11-29 18:55:00
1:15 PM,50.0,33.8,54,30.02,10.0,South,11.5,-,N/A,,Clear,190,2012-11-29 19:15:00
1:35 PM,51.8,35.6,54,30.02,10.0,South,10.4,-,N/A,,Clear,190,2012-11-29 19:35:00
1:55 PM,50.0,35.6,58,30.01,10.0,South,12.7,-,N/A,,Clear,190,2012-11-29 19:55:00
2:15 PM,51.8,35.6,54,30.00,10.0,South,10.4,-,N/A,,Clear,190,2012-11-29 20:15:00
2:35 PM,50.0,35.6,58,30.00,10.0,South,15.0,-,N/A,,Clear,190,2012-11-29 20:35:00
2:55 PM,51.8,35.6,54,29.99,10.0,South,11.5,-,N/A,,Clear,180,2012-11-29 20:55:00
3:15 PM,50.0,35.6,58,29.99,10.0,South,8.1,-,N/A,,Clear,180,2012-11-29 21:15:00
3:35 PM,50.0,35.6,58,30.00,10.0,South,8.1,-,N/A,,Clear,180,2012-11-29 21:35:00
3:55 PM,50.0,35.6,58,30.00,10.0,SSW,4.6,-,N/A,,Clear,200,2012-11-29 21:55:00
4:15 PM,48.2,35.6,62,30.00,10.0,South,4.6,-,N/A,,Clear,190,2012-11-29 22:15:00
4:35 PM,46.4,35.6,66,29.99,10.0,South,4.6,-,N/A,,Clear,180,2012-11-29 22:35:00
4:55 PM,46.4,35.6,66,30.00,10.0,Calm,Calm,-,N/A,,Clear,0,2012-11-29 22:55:00
5:15 PM,44.6,35.6,71,30.00,10.0,SSE,3.5,-,N/A,,Clear,160,2012-11-29 23:15:00
5:35 PM,44.6,35.6,71,30.01,10.0,Calm,Calm,-,N/A,,Clear,0,2012-11-29 23:35:00
5:55 PM,41.0,35.6,81,30.01,10.0,Calm,Calm,-,N/A,,Clear,0,2012-11-29 23:55:00
6:15 PM,41.0,35.6,81,30.01,10.0,ESE,3.5,-,N/A,,Clear,120,2012-11-30 00:15:00
6:35 PM,41.0,35.6,81,30.01,10.0,East,3.5,-,N/A,,Clear,90,2012-11-30 00:35:00
6:55 PM,39.2,33.8,81,30.01,10.0,East,3.5,-,N/A,,Clear,90,2012-11-30 00:55:00
7:15 PM,39.2,33.8,81,30.01,10.0,East,3.5,-,N/A,,Clear,90,2012-11-30 01:15:00
7:35 PM,41.0,35.6,81,30.01,10.0,ESE,5.8,-,N/A,,Clear,120,2012-11-30 01:35:00
7:55 PM,41.0,35.6,81,30.01,10.0,ESE,4.6,-,N/A,,Clear,110,2012-11-30 01:55:00
8:15 PM,39.2,35.6,87,30.01,10.0,ESE,3.5,-,N/A,,Clear,110,2012-11-30 02:15:00
8:35 PM,39.2,35.6,87,30.01,10.0,ESE,3.5,-,N/A,,Clear,110,2012-11-30 02:35:00
8:55 PM,39.2,35.6,87,30.01,10.0,SE,4.6,-,N/A,,Clear,130,2012-11-30 02:55:00
9:15 PM,39.2,35.6,87,30.01,10.0,Calm,Calm,-,N/A,,Clear,0,2012-11-30 03:15:00
9:35 PM,37.4,35.6,93,30.02,10.0,Calm,Calm,-,N/A,,Clear,0,2012-11-30 03:35:00
9:55 PM,37.4,35.6,93,30.01,10.0,SE,3.5,-,N/A,,Clear,140,2012-11-30 03:55:00
10:15 PM,35.6,35.6,100,30.00,-9999.0,SSE,6.9,-,N/A,,Unknown,150,2012-11-30 04:15:00
10:35 PM,35.6,32.0,87,30.00,-9999.0,SSE,8.1,-,N/A,,Unknown,150,2012-11-30 04:35:00
10:55 PM,35.6,33.8,93,30.00,-9999.0,SSE,6.9,-,N/A,,Unknown,150,2012-11-30 04:55:00
11:15 PM,37.4,33.8,87,30.00,10.0,SSE,6.9,-,N/A,,Clear,160,2012-11-30 05:15:00
11:35 PM,37.4,33.8,87,30.00,10.0,SSE,5.8,-,N/A,,Clear,160,2012-11-30 05:35:00
11:55 PM,37.4,35.6,93,29.99,10.0,SE,6.9,-,N/A,,Clear,140,2012-11-30 05:55:00